Location: Cheching
(60.0667°N, 164.2167°W)
Time: 00:51:24
(UTC+00:00)

DX 1 - Pass Details

Date: 29 January 2021
Orbit: 618 x 631 km, 98.5° (Epoch: 07 March)

Event Time Altitude Azimuth Distance (km) Brightness Sun altitude
Exits shadow 08:09:41 12° 268° (W) 1,867 ? -36.9°
Drops below altitude 10° 08:10:07 10° 264° (W) 1,993 ? -37.0°
Sets 08:12:44 0° 248° (WSW) 2,895 ? -37.2°
